• In Russia
  • List of Countries
  • For 7 days
  • Water Temperature
  • Satellite Maps
  • Weather Map
  • Weather Widgets
  • user-avatar
    Login

    Hourly Weather Stawiska

    Today, 19 July, Friday

    Time Temperature Precipitation Wind Pressure Humidity
    00:00 +11°C° 0 mm 1 mps 693 mmHg 89%
    01:00 +10°C° 0 mm 2 mps 693 mmHg 89%
    02:00 +11°C° 0.1 mm 1 mps 693 mmHg 89%
    03:00 +11°C° 0.1 mm 1 mps 693 mmHg 90%
    04:00 +11°C° 0.1 mm 1 mps 693 mmHg 90%
    05:00 +13°C° 0 mm 1 mps 694 mmHg 88%
    06:00 +14°C° 0 mm 1 mps 694 mmHg 85%
    07:00 +16°C° 0 mm 1 mps 695 mmHg 82%
    08:00 +18°C° 0.3 mm 2 mps 695 mmHg 73%
    09:00 +20°C° 0.3 mm 2 mps 695 mmHg 65%
    10:00 +21°C° 0.3 mm 2 mps 696 mmHg 56%
    11:00 +23°C° 0.3 mm 2 mps 696 mmHg 55%
    12:00 +23°C° 0.3 mm 2 mps 695 mmHg 54%
    13:00 +24°C° 0.3 mm 2 mps 695 mmHg 54%
    14:00 +23°C° 0.2 mm 2 mps 695 mmHg 57%
    15:00 +23°C° 0.2 mm 2 mps 695 mmHg 61%
    16:00 +23°C° 0.2 mm 2 mps 695 mmHg 64%
    17:00 +20°C° 0.6 mm 2 mps 695 mmHg 72%
    18:00 +19°C° 0.6 mm 2 mps 695 mmHg 79%
    19:00 +18°C° 0.6 mm 1 mps 694 mmHg 87%
    20:00 +16°C° 1.1 mm 1 mps 695 mmHg 89%
    21:00 +16°C° 1.1 mm 1 mps 695 mmHg 92%
    22:00 +15°C° 1.1 mm 1 mps 695 mmHg 95%
    23:00 +15°C° 0.6 mm 1 mps 695 mmHg 95%

    Tomorrow, 20 July, Saturday

    Time Temperature Precipitation Wind Pressure Humidity
    00:00 +15°C° 0.6 mm 1 mps 695 mmHg 94%
    01:00 +15°C° 0.6 mm 1 mps 695 mmHg 94%
    02:00 +14°C° 0 mm 1 mps 695 mmHg 95%
    03:00 +14°C° 0 mm 1 mps 695 mmHg 95%
    04:00 +13°C° 0 mm 1 mps 695 mmHg 96%
    05:00 +15°C° 0 mm 1 mps 695 mmHg 93%
    06:00 +16°C° 0 mm 1 mps 696 mmHg 91%
    07:00 +19°C° 0 mm 1 mps 696 mmHg 88%
    08:00 +21°C° 0 mm 1 mps 697 mmHg 77%
    09:00 +22°C° 0 mm 1 mps 697 mmHg 65%
    10:00 +24°C° 0 mm 2 mps 697 mmHg 54%
    11:00 +24°C° 0.4 mm 2 mps 697 mmHg 57%
    12:00 +24°C° 0.4 mm 2 mps 697 mmHg 61%
    13:00 +24°C° 0.4 mm 2 mps 697 mmHg 65%
    14:00 +24°C° 0.9 mm 1 mps 697 mmHg 69%
    15:00 +24°C° 0.9 mm 1 mps 697 mmHg 73%
    16:00 +23°C° 0.9 mm 1 mps 697 mmHg 77%
    17:00 +22°C° 0.3 mm 1 mps 696 mmHg 80%
    18:00 +21°C° 0.3 mm 1 mps 696 mmHg 84%
    19:00 +20°C° 0.3 mm 1 mps 696 mmHg 88%
    20:00 +19°C° 0 mm 1 mps 696 mmHg 89%
    21:00 +18°C° 0 mm 1 mps 696 mmHg 90%
    22:00 +16°C° 0 mm 1 mps 696 mmHg 91%
    23:00 +16°C° 0 mm 1 mps 696 mmHg 92%

    Day after tomorrow, 21 July, Sunday

    Time Temperature Precipitation Wind Pressure Humidity
    00:00 +16°C° 0 mm 1 mps 696 mmHg 92%
    01:00 +16°C° 0 mm 1 mps 696 mmHg 92%
    02:00 +15°C° 0.5 mm 1 mps 696 mmHg 93%
    03:00 +15°C° 0.5 mm 1 mps 696 mmHg 94%
    04:00 +15°C° 0.5 mm 1 mps 696 mmHg 95%
    05:00 +16°C° 0.4 mm 1 mps 696 mmHg 93%
    06:00 +19°C° 0.4 mm 1 mps 696 mmHg 91%
    07:00 +20°C° 0.4 mm 1 mps 696 mmHg 90%
    08:00 +21°C° 0.3 mm 2 mps 697 mmHg 82%
    09:00 +24°C° 0.3 mm 2 mps 697 mmHg 74%
    10:00 +26°C° 0.3 mm 2 mps 698 mmHg 66%
    11:00 +25°C° 1.6 mm 3 mps 698 mmHg 70%
    12:00 +25°C° 1.6 mm 3 mps 698 mmHg 73%
    13:00 +24°C° 1.6 mm 3 mps 698 mmHg 77%
    14:00 +22°C° 2.3 mm 3 mps 697 mmHg 81%
    15:00 +21°C° 2.3 mm 2 mps 697 mmHg 84%
    16:00 +20°C° 2.3 mm 2 mps 697 mmHg 88%
    17:00 +19°C° 0.1 mm 2 mps 697 mmHg 88%
    18:00 +20°C° 0.1 mm 1 mps 697 mmHg 89%
    19:00 +20°C° 0.1 mm 1 mps 697 mmHg 89%
    20:00 +19°C° 0.1 mm 1 mps 697 mmHg 90%
    21:00 +18°C° 0.1 mm 1 mps 697 mmHg 92%
    22:00 +16°C° 0.1 mm 1 mps 698 mmHg 93%
    23:00 +15°C° 0 mm 1 mps 698 mmHg 94%

    22 July, Monday

    Time Temperature Precipitation Wind Pressure Humidity
    00:00 +15°C° 0 mm 1 mps 698 mmHg 94%
    01:00 +15°C° 0 mm 1 mps 698 mmHg 94%
    02:00 +15°C° 0 mm 1 mps 698 mmHg 95%
    03:00 +14°C° 0 mm 1 mps 698 mmHg 95%
    04:00 +14°C° 0 mm 1 mps 698 mmHg 96%
    05:00 +15°C° 0 mm 1 mps 699 mmHg 94%
    06:00 +16°C° 0 mm 1 mps 699 mmHg 92%
    07:00 +18°C° 0 mm 1 mps 700 mmHg 90%
    08:00 +20°C° 0.1 mm 1 mps 700 mmHg 79%
    09:00 +20°C° 0.1 mm 2 mps 700 mmHg 69%
    10:00 +23°C° 0.1 mm 2 mps 701 mmHg 58%
    11:00 +23°C° 0.1 mm 2 mps 701 mmHg 57%
    12:00 +22°C° 0.1 mm 3 mps 701 mmHg 55%
    13:00 +24°C° 0.1 mm 3 mps 701 mmHg 54%
    14:00 +24°C° 0 mm 3 mps 701 mmHg 53%
    15:00 +24°C° 0 mm 3 mps 700 mmHg 53%
    16:00 +24°C° 0 mm 3 mps 700 mmHg 52%
    17:00 +21°C° 0 mm 2 mps 700 mmHg 60%
    18:00 +19°C° 0 mm 2 mps 700 mmHg 68%
    19:00 +19°C° 0 mm 1 mps 700 mmHg 77%
    20:00 +16°C° 0 mm 1 mps 700 mmHg 80%
    21:00 +15°C° 0 mm 1 mps 700 mmHg 83%
    22:00 +13°C° 0 mm 0 mps 700 mmHg 86%
    23:00 +13°C° 0 mm 0 mps 700 mmHg 87%

    23 July, Tuesday

    Time Temperature Precipitation Wind Pressure Humidity
    00:00 +12°C° 0 mm 0 mps 700 mmHg 88%
    01:00 +12°C° 0 mm 0 mps 700 mmHg 89%
    02:00 +12°C° 0 mm 0 mps 699 mmHg 89%
    03:00 +11°C° 0 mm 0 mps 699 mmHg 89%
    04:00 +11°C° 0 mm 0 mps 699 mmHg 90%
    05:00 +14°C° 0 mm 1 mps 700 mmHg 84%
    06:00 +16°C° 0 mm 1 mps 700 mmHg 77%
    07:00 +18°C° 0 mm 1 mps 700 mmHg 71%
    08:00 +19°C° 0 mm 1 mps 700 mmHg 66%
    09:00 +20°C° 0 mm 1 mps 701 mmHg 61%
    10:00 +20°C° 0 mm 2 mps 701 mmHg 55%
    11:00 +21°C° 0 mm 2 mps 701 mmHg 54%
    12:00 +23°C° 0 mm 2 mps 700 mmHg 52%
    13:00 +22°C° 0 mm 3 mps 700 mmHg 50%
    14:00 +23°C° 0 mm 2 mps 700 mmHg 53%
    15:00 +23°C° 0 mm 2 mps 700 mmHg 56%
    16:00 +21°C° 0 mm 2 mps 699 mmHg 59%
    17:00 +20°C° 0 mm 2 mps 699 mmHg 66%
    18:00 +20°C° 0 mm 1 mps 699 mmHg 72%
    19:00 +19°C° 0 mm 1 mps 699 mmHg 78%
    20:00 +16°C° 0 mm 1 mps 698 mmHg 82%
    21:00 +15°C° 0 mm 1 mps 698 mmHg 85%
    22:00 +13°C° 0 mm 0 mps 698 mmHg 89%
    23:00 +13°C° 0 mm 0 mps 698 mmHg 89%

    24 July, Wednesday

    Time Temperature Precipitation Wind Pressure Humidity
    00:00 +13°C° 0 mm 0 mps 698 mmHg 90%
    01:00 +13°C° 0 mm 0 mps 698 mmHg 90%
    02:00 +13°C° 0 mm 0 mps 698 mmHg 90%
    03:00 +13°C° 0 mm 0 mps 697 mmHg 90%
    04:00 +13°C° 0 mm 0 mps 697 mmHg 89%
    05:00 +14°C° 0 mm 0 mps 698 mmHg 84%
    06:00 +18°C° 0 mm 1 mps 698 mmHg 78%
    07:00 +20°C° 0 mm 1 mps 699 mmHg 72%
    08:00 +21°C° 0 mm 1 mps 699 mmHg 69%
    09:00 +22°C° 0 mm 1 mps 699 mmHg 67%
    10:00 +21°C° 0 mm 2 mps 699 mmHg 64%
    11:00 +23°C° 0 mm 2 mps 699 mmHg 63%
    12:00 +23°C° 0 mm 2 mps 699 mmHg 61%
    13:00 +24°C° 0 mm 2 mps 699 mmHg 60%
    14:00 +24°C° 0 mm 2 mps 699 mmHg 60%
    15:00 +24°C° 0 mm 2 mps 699 mmHg 60%
    16:00 +24°C° 0 mm 2 mps 698 mmHg 60%
    17:00 +23°C° 0 mm 2 mps 698 mmHg 68%
    18:00 +21°C° 0 mm 1 mps 698 mmHg 76%
    19:00 +19°C° 0 mm 1 mps 698 mmHg 84%
    20:00 +18°C° 0 mm 1 mps 698 mmHg 87%
    21:00 +16°C° 0 mm 1 mps 698 mmHg 90%
    22:00 +15°C° 0 mm 1 mps 698 mmHg 93%
    23:00 +15°C° 0 mm 1 mps 698 mmHg 94%
    Show more